EW3359 Weather Reports


Display with metric or nautical units.
time (UTC)temp
F
wind
direction
speed
MPH
gust
MPH
rain 1hr
in
rain 24hr
in
rain mn
in
humidity
%
barometer
mb
20260505061545 53 215 0.0 0.0 0.00 0.00 0.00 86 1008.4
20260505060042 53 215 0.0 0.0 0.00 0.00 0.00 86 1008.4
20260505054541 52 216 0.0 0.0 0.00 0.00 0.00 86 1008.2
20260505053038 53 216 0.0 0.0 0.00 0.00 0.00 85 1008.1
20260505051536 53 216 0.0 1.0 0.00 0.00 0.00 85 1008.0
20260505041547 53 211 0.0 1.0 0.00 0.00 0.00 80 1007.8
20260505040039 53 209 0.0 4.0 0.00 0.00 0.00 76 1007.5
20260505034530 54 193 0.0 2.0 0.00 0.00 0.00 71 1007.5
20260505033025 54 271 0.0 1.0 0.00 0.00 0.00 69 1007.3
20260505031536 54 270 0.0 1.0 0.00 0.00 0.00 69 1007.6
20260505030024 54 271 0.0 1.0 0.00 0.00 0.00 68 1007.3
20260505024522 54 271 0.0 1.0 0.00 0.00 0.00 69 1007.5
20260505023020 54 271 0.0 0.0 0.00 0.00 0.00 70 1007.8
20260505021520 55 271 0.0 0.0 0.00 0.00 0.00 67 1007.9
20260505020018 55 290 0.0 1.0 0.00 0.00 0.00 67 1007.9
20260505014517 54 288 0.0 1.0 0.00 0.00 0.00 69 1008.3
20260505013014 55 286 0.0 1.0 0.00 0.00 0.00 66 1008.6
20260505011514 56 288 0.0 1.0 0.00 0.00 0.00 63 1008.6
20260505010019 57 289 0.0 1.0 0.00 0.00 0.00 60 1008.6
20260505004513 56 288 0.0 1.0 0.00 0.00 0.00 65 1008.9
20260505003011 56 288 0.0 1.0 0.00 0.00 0.00 65 1009.3
20260505001509 56 287 0.0 0.0 0.00 0.00 0.00 68 1009.5
20260505000010 57 287 0.0 0.0 0.00 0.00 0.00 60 1009.8
20260504234508 56 287 0.0 0.0 0.00 0.00 0.00 65 1010.0
20260504233003 57 287 0.0 1.0 0.00 0.00 0.00 65 1010.5
20260504231604 55 288 0.0 0.0 0.00 0.00 0.00 72 1010.5
20260504230058 55 285 0.0 0.0 0.00 0.00 0.00 73 1010.6
20260504224602 55 285 0.0 0.0 0.00 0.00 0.00 75 1010.8
20260504223124 54 285 0.0 4.0 0.00 0.00 0.00 75 1010.7
20260504221554 55 225 0.0 0.0 0.00 0.00 0.00 75 1010.9
20260504220049 54 225 0.0 0.0 0.00 0.00 0.00 74 1010.8
20260504214550 54 225 0.0 0.0 0.00 0.00 0.00 74 1010.8
20260504213057 55 225 0.0 1.0 0.00 0.00 0.00 74 1010.9
20260504211547 54 164 0.0 0.0 0.00 0.00 0.00 75 1011.1
20260504210047 54 164 0.0 1.0 0.00 0.00 0.00 79 1011.1
20260504204549 54 167 0.0 0.0 0.00 0.00 0.00 79 1011.2
20260504203059 55 167 0.0 0.0 0.00 0.00 0.00 79 1011.3
20260504201549 56 167 0.0 0.0 0.00 0.00 0.00 79 1011.2
20260504200045 56 167 0.0 0.0 0.00 0.00 0.00 79 1011.4
20260504194545 56 167 0.0 0.0 0.00 0.00 0.00 78 1011.2
20260504193044 57 167 0.0 0.0 0.00 0.00 0.00 78 1011.1
20260504191549 57 180 0.0 1.0 0.00 0.00 0.00 79 1011.1
20260504190046 56 179 0.0 1.0 0.00 0.00 0.00 79 1011.1
20260504184542 57 179 0.0 1.0 0.00 0.00 0.00 77 1011.1
20260504183042 57 179 0.0 0.0 0.00 0.00 0.00 76 1011.3
20260504181545 58 179 0.0 1.0 0.00 0.00 0.00 75 1011.3
20260504180042 59 186 0.0 1.0 0.00 0.00 0.00 72 1011.2
20260504174541 60 240 0.0 8.0 0.00 0.00 0.00 69 1011.3
20260504173040 60 294 0.0 5.0 0.00 0.00 0.00 66 1011.2
20260504171546 61 236 0.0 7.0 0.00 0.00 0.00 62 1011.2
20260504081509 65 147 0.0 8.0 0.00 0.00 0.00 55 1010.9